Regional Weather Roundup
Issued by NWS Sterling, VA

Home | Current Version | Previous Version | Graphics & Text | Print | Product List | Glossary On
Versions: 1 2 3 4 5 6 7 8 9 10 11 12 13 14 15 16 17 18 19 20 21 22 23 24 25 26 27 28 29 30 31 32 33 34 35 36 37 38 39 40 41 42 43 44 45 46 47 48 49 50
000
ASUS41 KLWX 211211
RWRLWX

REGIONAL WEATHER ROUNDUP
NATIONAL WEATHER SERVICE BALTIMORE MD/WASHINGTON DC
800 AM EDT THU SEP 21 2017

Note: "FAIR" indicates few or no clouds below 12,000 feet
with no significant weather and/or obstructions to visibility.
 TC=TEMPERATURE CELSIUS

 * =Non NWS site. Station does not report precipitation (e.g. rain,
    snow, etc.), thunder, or fog.

DCZ001-MDZ009-015-VAZ040>042-051-053>054-211300-
WASHINGTON METRO

CITY           SKY/WX    TMP DP  RH WIND       PRES   REMARKS
WASHINGTON NAT MOSUNNY   71  63  75 N6        30.07R
DULLES         MOSUNNY   65  62  90 NW3       30.08R
ANDREWS AFB    SUNNY     68  61  79 N7        30.05R
FT BELVOIR     SUNNY     69  61  75 CALM      30.06R
QUANTICO       MOSUNNY   68  64  87 NW3       30.07R
COLLEGE PARK*  SUNNY     62  60  96 CALM      30.06R
LEESBURG*      SUNNY     64  64 100 CALM      30.09R
MANASSAS*      SUNNY     60  58  92 CALM      30.08R
GAITHERSBURG*  SUNNY     65  62  90 CALM      30.08R

$$

MDZ006>007-011-014-211300-
BALTIMORE METRO

CITY           SKY/WX    TMP DP  RH WIND       PRES   REMARKS
BWI AIRPORT    MOSUNNY   65  63  93 W3        30.06R
MD SCIENCE CTR   N/A     74  63  68 MISG      30.06R
MARTIN STATE   MOSUNNY   68  66  94 CALM      30.07R
ANNAPOLIS      SUNNY     73  68  84 NW5       30.05R
FORT MEADE*    SUNNY     61  59  94 CALM      30.08S

$$

MDZ012-015-019>023-211300-
MARYLAND EASTERN SHORE

CITY           SKY/WX    TMP DP  RH WIND       PRES   REMARKS
OCEAN CITY     SUNNY    N/A N/A N/A NW6       30.02R
SALISBURY      SUNNY     69  68  96 NW3       30.02S
CAMBRIDGE*     SUNNY     66  64  94 CALM      30.04R
EASTON*        MOSUNNY   68  64  88 CALM      30.08R

$$

MDZ017>025-211300-
SOUTHERN MARYLAND

CITY           SKY/WX    TMP DP  RH WIND       PRES   REMARKS
PATUXENT RIVER MOSUNNY   70  67  90 NW5       30.04R
ST INIGOES     SUNNY     69  66  90 N3        30.03R
LEONARDTOWN*   SUNNY     66  63  88 CALM      30.06R

$$

MDZ003>005-211300-
NORTH CENTRAL MARYLAND

CITY           SKY/WX    TMP DP  RH WIND       PRES   REMARKS
FREDERICK*     MOSUNNY   61  61 100 CALM      30.11R
HAGERSTOWN APT SUNNY     64  59  83 CALM      30.10R
WESTMINSTER*   MOSUNNY   66  63  88 CALM      30.09R

$$

MDZ501>502-211300-
WESTERN MARYLAND

CITY           SKY/WX    TMP DP  RH WIND       PRES   REMARKS
OAKLAND*         N/A     61  61 100 CALM      30.17R VSB 1
CUMBERLAND*    SUNNY     59  59 100 CALM      30.16R

$$

VAZ025>031-211300-
SHENANDOAH VALLEY

CITY           SKY/WX    TMP DP  RH WIND       PRES   REMARKS
WINCHESTER*    SUNNY     57  57 100 CALM      30.10S
FRONT ROYAL*   SUNNY     59  59 100 CALM      30.10R
LURAY*         MOSUNNY   59  59 100 CALM      30.12R FOG
NEW MARKET*    MOSUNNY   58  56  96 CALM      30.11R
STAUNTON*      SUNNY     58  58 100 CALM      30.14R
WAYNESBORO*    CLOUDY    62  62 100 CALM      30.13R

$$

WVZ021-048>050-054>055-211300-
EASTERN WEST VIRGINIA PANHANDLE

CITY           SKY/WX    TMP DP  RH WIND       PRES   REMARKS
MARTINSBURG    SUNNY     59  57  93 CALM      30.10R FOG
PETERSBURG*    SUNNY     61  61  99 CALM      30.14R FOG

$$

VAZ036>039-050-211300-
CENTRAL FOOTHILLS

CITY           SKY/WX    TMP DP  RH WIND       PRES   REMARKS
CHARLOTTESVILL MOSUNNY   69  66  90 CALM      30.07R
CULPEPER*      SUNNY     62  61  97 CALM      30.09R
ORANGE*        SUNNY     63  61  94 CALM      30.07S
GORDONSVILLE*  MOSUNNY   63  63 100 CALM      30.06S
WARRENTON*     SUNNY     61  58  91 CALM      30.07R

$$

VAZ055>057-211300-
NORTH AND CENTRAL PIEDMONT

CITY           SKY/WX    TMP DP  RH WIND       PRES   REMARKS
FREDERICKSBRG* SUNNY     63  63 100 CALM      30.06R
STAFFORD*      SUNNY     65  64  94 N6        30.10R

$$

NCZ024-NYZ072-PAZ021-071-VAZ022-071-211300-
OTHER REGIONAL OBSERVATIONS

CITY           SKY/WX    TMP DP  RH WIND       PRES   REMARKS
NEW YORK CITY  CLOUDY    72  64  76 VRB3      30.02S
PHILADELPHIA   PTSUNNY   73  62  68 N8        30.03S
PITTSBURGH     PTCLDY    63  62  97 CALM      30.11S FOG
ROANOKE        CLEAR     66  64  93 CALM      30.12S
RICHMOND       PTSUNNY   68  64  87 N6        30.05R
RALEIGH        MOSUNNY   68  66  93 CALM      30.06R

$$

ANZ530>537-211300-
MARINE OBSERVATIONS

STATION/POSITION TIME  TEMP    WIND        PRES
                       AIR SEA DIR/SP/G
                 (UTC) (F)     (DEG/KT/KT) (MB)
THOMAS PT LIGHT  1200   72 75  360/  9/ 10   N/A
BALT KEY BRIDGE  1142   72     350/  5/  5 1017.5R
COVE POINT       1142   74      10/  7/ 10 1017.7R
LEWISETTA        1142   73 76  350/  3/  4 1017.0R
SOLOMONS ISLAND  1142   70 76  320/  3/  5 1016.7R
PINEY POINT      1142          350/  6/  7   N/A

$$




USA.gov is the U.S. government's official web portal to all federal, state and local government web resources and services.